Bedminster, NJ

11:52 AM EST on December 06, 2016 (GMT -0500)
Somerset

Weather History for KSMQ - March, 2015

Change the Weather History Date:

Thursday, March 19, 2015

  Actual Average Record
Temperature  
Mean Temperature 30 °F -  
Max Temperature 44 °F 48 °F 78 °F (2012)
Min Temperature 17 °F 26 °F 0 °F (1967)
Degree Days  
Heating Degree Days 35    
Moisture  
Dew Point 9 °F    
Average Humidity 48    
Maximum Humidity 86    
Minimum Humidity 19    
Precipitation  
Precipitation 0.00 in - - ()
Sea Level Pressure  
Sea Level Pressure 30.29 in    
Wind  
Wind Speed 3 mph (NNW)    
Max Wind Speed 12 mph    
Max Gust Speed 21 mph    
Visibility 10 miles    
Events      
Averages and records for this station are not official NWS values.
T = Trace of Precipitation, MM = Missing Value Source: NWS Daily Summary

Daily Weather History Graph

Daily Weather History Graph

Search for Another Location

Airport or City:

Trip Planner

Search our weather history database for the weather conditions in past years. The results will help you decide how hot, cold, wet, or windy it might be!

Date:

Astronomy

Mar. 19, 2015 Rise Set
Actual Time 7:04 AM EDT 7:09 PM EDT
Civil Twilight 6:36 AM EDT 7:36 PM EDT
Nautical Twilight 6:05 AM EDT 8:08 PM EDT
Astronomical Twilight 5:32 AM EDT 8:41 PM EDT
Moon 6:27 AM EDT (3/19) 6:34 PM EDT (3/19)
Length of Visible Light 12h 59m
Length of Day
12h 05m
Waning Crescent, 1% of the Moon is Illuminated
Mar 19
Waning Crescent
Mar 20
New
Mar 27
First Quarter
Apr 4
Full
Apr 11
Last Quarter

Hourly Weather History & Observations

Time (EDT) Temp. Windchill Dew Point Humidity Pressure Visibility Wind Dir Wind Speed Gust Speed Precip Events Conditions
12:53 AM 23.0 °F - 15.1 °F 72% 30.21 in 10.0 mi Calm Calm - N/A   Clear
1:53 AM 21.9 °F - 16.0 °F 78% 30.22 in 10.0 mi Calm Calm - N/A   Clear
2:53 AM 21.0 °F - 16.0 °F 81% 30.22 in 10.0 mi Calm Calm - N/A   Clear
3:53 AM 21.0 °F - 14.0 °F 74% 30.23 in 10.0 mi Calm Calm - N/A   Clear
4:53 AM 19.9 °F - 14.0 °F 78% 30.25 in 10.0 mi Calm Calm - N/A   Clear
5:53 AM 17.6 °F - 14.0 °F 86% 30.26 in 10.0 mi Calm Calm - N/A   Clear
6:53 AM 19.0 °F 13.9 °F 14.0 °F 81% 30.30 in 10.0 mi NW 3.5 mph - N/A   Clear
7:53 AM 24.1 °F 19.7 °F 16.0 °F 71% 30.32 in 10.0 mi NW 3.5 mph - N/A   Clear
8:53 AM 30.0 °F 21.7 °F 12.9 °F 49% 30.34 in 10.0 mi NNW 9.2 mph - N/A   Clear
9:53 AM 32.0 °F 24.2 °F 5.0 °F 32% 30.35 in 10.0 mi NNW 9.2 mph 19.6 mph N/A   Clear
10:53 AM 33.1 °F 24.4 °F -0.9 °F 23% 30.35 in 10.0 mi North 11.5 mph 19.6 mph N/A   Clear
11:53 AM 36.0 °F 29.6 °F -0.9 °F 21% 30.34 in 10.0 mi North 8.1 mph 17.3 mph N/A   Clear
12:53 PM 37.9 °F 30.5 °F 1.9 °F 22% 30.33 in 10.0 mi NW 11.5 mph 20.7 mph N/A   Clear
1:53 PM 39.0 °F 32.8 °F 1.9 °F 21% 30.31 in 10.0 mi NNW 9.2 mph 17.3 mph N/A   Clear
2:53 PM 41.0 °F 34.7 °F 1.9 °F 20% 30.28 in 10.0 mi WNW 10.4 mph 17.3 mph N/A   Clear
3:53 PM 42.8 °F 37.5 °F 3.2 °F 19% 30.26 in 10.0 mi NNW 9.2 mph - N/A   Clear
4:53 PM 43.0 °F 40.3 °F 3.0 °F 19% 30.27 in 10.0 mi Variable 4.6 mph - N/A   Clear
5:53 PM 42.1 °F 36.6 °F 3.9 °F 21% 30.27 in 10.0 mi NW 9.2 mph - N/A   Clear
6:53 PM 41.0 °F 39.0 °F 3.9 °F 21% 30.28 in 10.0 mi Variable 3.5 mph - N/A   Clear
7:53 PM 35.1 °F - 7.0 °F 31% 30.31 in 10.0 mi Calm Calm - N/A   Clear
8:53 PM 30.9 °F - 9.0 °F 40% 30.32 in 10.0 mi Calm Calm - N/A   Clear
9:53 PM 28.0 °F 22.8 °F 15.1 °F 58% 30.32 in 10.0 mi NNW 4.6 mph - N/A   Clear
10:53 PM 26.1 °F - 16.0 °F 66% 30.34 in 10.0 mi Calm Calm - N/A   Clear
11:53 PM 26.1 °F - 15.1 °F 63% 30.35 in 10.0 mi Calm Calm - N/A   Clear